Location: Newark
(33.4453°N, 112.0669°W)
Time: 12:34:21
(UTC+00:00)

X-37B - Visible Passes

Search period start: 08 March 2021 00:00
Search period end: 18 March 2021 00:00
Orbit: 383 x 391 km, 45.0° (Epoch: 27 February)

Date Brightness Start Highest point End Pass type
(mag) Time Alt. Az. Time Alt. Az. Time Alt. Az.
09 Mar 2.1 02:38:17 10° SSW 02:40:32 22° SSE 02:40:32 22° SSE visible
10 Mar 1.9 03:15:45 10° WSW 03:17:55 39° WSW 03:17:55 39° WSW visible
11 Mar 0.9 02:17:31 10° SW 02:20:37 49° SE 02:22:51 17° ENE visible
11 Mar 4.1 03:54:46 10° WNW 03:55:10 12° WNW 03:55:10 12° WNW visible
12 Mar 1.9 02:55:53 10° W 02:58:53 37° NNW 02:59:57 28° NNE visible
13 Mar 0.8 01:57:16 10° WSW 02:00:28 73° NNW 02:03:40 10° NE visible
13 Mar 3.4 03:35:26 10° WNW 03:36:55 15° NNW 03:36:55 15° NNW visible
14 Mar 2.7 02:36:19 10° WNW 02:38:55 22° NNW 02:41:29 10° NNE visible
15 Mar 3.4 03:16:15 10° NW 03:17:41 12° N 03:18:14 12° N visible
16 Mar 3.2 02:16:57 10° WNW 02:19:01 16° NNW 02:21:05 10° NNE visible
17 Mar 3.4 02:57:04 10° NNW 02:57:54 11° N 02:58:44 10° N visible
